Weather History for Salem, IL

Change the Weather History Date:

Wednesday, March 19, 2014

  Actual Average Record
Temperature  
Mean Temperature 43 °F -  
Max Temperature 52 °F 55 °F 81 °F (2012)
Min Temperature 33 °F 35 °F 11 °F (1965)
Degree Days  
Heating Degree Days 22    
Moisture  
Dew Point 39 °F    
Average Humidity 74    
Maximum Humidity 92    
Minimum Humidity 65    
Precipitation  
Precipitation 0.00 in - - ()
Sea Level Pressure  
Sea Level Pressure 29.89 in    
Wind  
Wind Speed 15 mph (WSW)    
Max Wind Speed 25 mph    
Max Gust Speed 32 mph    
Visibility 9 miles    
Events      
Averages and records for this station are not official NWS values.
T = Trace of Precipitation, MM = Missing Value Source: NWS Daily Summary

Daily Weather History Graph

Daily Weather History Graph

Search for Another Location

Airport:

Trip Planner

Search our weather history database for the weather conditions in past years. The results will help you decide how hot, cold, wet, or windy it might be!

Date:

Astronomy

Mar. 19, 2014 Rise Set
Actual Time 7:00 AM CDT 7:06 PM CDT
Civil Twilight 6:34 AM CDT 7:33 PM CDT
Nautical Twilight 6:03 AM CDT 8:04 PM CDT
Astronomical Twilight 5:32 AM CDT 8:35 PM CDT
Moon 10:22 PM CDT (3/19) 8:28 AM CDT (3/19)
Length of Visible Light 12h 58m
Length of Day
12h 05m
Waning Gibbous, 91% of the Moon is Illuminated
Mar 19
Waning Gibbous
Mar 23
Last Quarter
Mar 30
New
Apr 7
First Quarter
Apr 15
Full

Hourly Weather History & Observations

Time (CDT) Temp. Windchill Dew Point Humidity Pressure Visibility Wind Dir Wind Speed Gust Speed Precip Events Conditions
12:15 AM 52.9 °F - 43.3 °F 70% 29.72 in 10.0 mi South 15.0 mph 21.9 mph N/A   Overcast
12:35 AM 52.5 °F - 43.3 °F 71% 29.71 in 10.0 mi South 13.8 mph 19.6 mph N/A   Overcast
12:55 AM 52.2 °F - 43.3 °F 72% 29.71 in 10.0 mi South 15.0 mph 21.9 mph N/A   Overcast
1:15 AM 52.0 °F - 43.2 °F 72% 29.70 in 10.0 mi South 17.3 mph 23.0 mph N/A   Overcast
1:35 AM 51.8 °F - 43.0 °F 72% 29.70 in 10.0 mi South 17.3 mph 25.3 mph N/A   Scattered Clouds
1:55 AM 51.4 °F - 43.0 °F 73% 29.70 in 10.0 mi South 17.3 mph 25.3 mph N/A   Clear
2:15 AM 51.1 °F - 43.0 °F 74% 29.70 in 10.0 mi South 19.6 mph 25.3 mph N/A   Clear
2:35 AM 51.1 °F - 43.0 °F 74% 29.70 in 10.0 mi South 18.4 mph 25.3 mph N/A   Clear
2:55 AM 50.9 °F - 43.2 °F 75% 29.71 in 10.0 mi SSW 13.8 mph 19.6 mph N/A   Clear
3:15 AM 50.5 °F - 43.2 °F 76% 29.70 in 10.0 mi SSW 10.4 mph - N/A   Clear
3:35 AM 51.3 °F - 43.5 °F 75% 29.70 in 10.0 mi SSW 16.1 mph - N/A   Clear
3:55 AM 51.1 °F - 43.3 °F 75% 29.68 in 10.0 mi South 13.8 mph - N/A   Clear
4:15 AM 51.6 °F - 43.7 °F 74% 29.68 in 10.0 mi South 17.3 mph 23.0 mph N/A   Clear
4:35 AM 51.4 °F - 43.7 °F 75% 29.68 in 10.0 mi South 15.0 mph 20.7 mph N/A   Clear
4:55 AM 51.4 °F - 43.9 °F 75% 29.69 in 10.0 mi SSW 15.0 mph - N/A   Clear
5:15 AM 50.9 °F - 43.9 °F 77% 29.69 in 10.0 mi SSW 13.8 mph - N/A   Clear
5:35 AM 50.5 °F - 43.9 °F 78% 29.70 in 10.0 mi SSW 12.7 mph 19.6 mph N/A   Clear
5:55 AM 50.5 °F - 44.1 °F 78% 29.70 in 10.0 mi South 12.7 mph - N/A   Scattered Clouds
6:15 AM 50.7 °F - 44.2 °F 78% 29.70 in 10.0 mi South 15.0 mph 23.0 mph N/A   Mostly Cloudy
6:35 AM 51.1 °F - 44.6 °F 78% 29.70 in 10.0 mi SSW 15.0 mph 20.7 mph N/A   Overcast
6:55 AM 51.1 °F - 44.6 °F 78% 29.70 in 10.0 mi SSW 16.1 mph - N/A   Mostly Cloudy
7:15 AM 50.4 °F - 44.6 °F 81% 29.71 in 10.0 mi SSW 12.7 mph 20.7 mph N/A   Clear
7:35 AM 50.4 °F - 44.6 °F 81% 29.72 in 10.0 mi SSW 13.8 mph 23.0 mph N/A   Clear
7:55 AM 50.2 °F - 45.0 °F 82% 29.73 in 10.0 mi SW 13.8 mph 23.0 mph N/A   Scattered Clouds
8:15 AM 50.9 °F - 45.0 °F 80% 29.73 in 10.0 mi SW 17.3 mph 23.0 mph N/A   Scattered Clouds
8:35 AM 51.8 °F - 45.0 °F 77% 29.74 in 10.0 mi SW 16.1 mph 25.3 mph N/A   Scattered Clouds
8:55 AM 52.0 °F - 44.2 °F 75% 29.75 in 10.0 mi WSW 21.9 mph 27.6 mph N/A   Scattered Clouds
9:15 AM 52.7 °F - 43.9 °F 72% 29.76 in 10.0 mi West 16.1 mph 29.9 mph N/A   Scattered Clouds
9:35 AM 52.0 °F - 42.8 °F 71% 29.77 in 10.0 mi West 16.1 mph 25.3 mph N/A   Mostly Cloudy
9:55 AM 51.8 °F - 42.8 °F 71% 29.80 in 10.0 mi West 20.7 mph 26.5 mph N/A   Overcast
10:15 AM 51.3 °F - 42.4 °F 72% 29.82 in 10.0 mi West 19.6 mph 25.3 mph N/A   Overcast
10:35 AM 50.4 °F - 42.1 °F 73% 29.84 in 10.0 mi WNW 18.4 mph 26.5 mph N/A   Overcast
10:55 AM 50.0 °F - 41.5 °F 73% 29.85 in 10.0 mi West 13.8 mph 27.6 mph N/A   Overcast
11:15 AM 49.6 °F - 41.9 °F 75% 29.87 in 10.0 mi West 20.7 mph 25.3 mph N/A   Overcast
11:35 AM 49.3 °F - 42.1 °F 76% 29.88 in 10.0 mi West 16.1 mph 25.3 mph N/A   Overcast
11:55 AM 50.0 °F - 42.3 °F 75% 29.89 in 7.0 mi West 20.7 mph 27.6 mph N/A   Overcast
12:15 PM 50.2 °F - 41.4 °F 72% 29.91 in 10.0 mi West 20.7 mph 28.8 mph N/A   Overcast
12:35 PM 48.4 °F - 41.7 °F 78% 29.92 in 5.0 mi West 25.3 mph 32.2 mph N/A   Haze
12:55 PM 49.3 °F - 41.4 °F 74% 29.93 in 5.0 mi West 21.9 mph 31.1 mph N/A   Haze
1:15 PM 48.2 °F - 40.3 °F 74% 29.94 in 7.0 mi West 21.9 mph 28.8 mph N/A   Overcast
1:35 PM 48.2 °F - 39.0 °F 71% 29.95 in 10.0 mi West 25.3 mph 29.9 mph N/A   Overcast
1:55 PM 47.5 °F - 38.1 °F 70% 29.96 in 10.0 mi West 21.9 mph 32.2 mph N/A   Overcast
2:15 PM 47.8 °F - 37.8 °F 68% 29.96 in 10.0 mi West 21.9 mph 28.8 mph N/A   Overcast
2:35 PM 47.3 °F - 37.8 °F 69% 29.97 in 10.0 mi West 18.4 mph 25.3 mph N/A   Overcast
2:55 PM 46.9 °F - 37.6 °F 70% 29.98 in 7.0 mi WNW 19.6 mph 27.6 mph N/A   Overcast
3:15 PM 46.8 °F - 37.4 °F 70% 29.99 in 7.0 mi West 20.7 mph 25.3 mph N/A   Overcast
3:35 PM 46.8 °F - 37.2 °F 69% 30.00 in 7.0 mi West 20.7 mph 25.3 mph N/A   Overcast
3:55 PM 47.1 °F - 37.4 °F 69% 30.00 in 7.0 mi West 20.7 mph 26.5 mph N/A   Overcast
4:15 PM 46.9 °F - 37.0 °F 68% 30.01 in 7.0 mi West 20.7 mph - N/A   Overcast
4:35 PM 46.4 °F 39.5 °F 36.0 °F 67% 30.02 in 10.0 mi West 17.3 mph 26.5 mph N/A   Overcast
4:55 PM 45.9 °F 38.3 °F 36.7 °F 70% 30.03 in 10.0 mi West 19.6 mph 25.3 mph N/A   Overcast
5:15 PM 45.7 °F 37.8 °F 36.0 °F 69% 30.03 in 10.0 mi West 20.7 mph 24.2 mph N/A   Overcast
5:35 PM 45.5 °F 37.8 °F 35.1 °F 67% 30.04 in 10.0 mi West 19.6 mph 25.3 mph N/A   Overcast
5:55 PM 45.5 °F 38.1 °F 34.2 °F 65% 30.05 in 10.0 mi West 18.4 mph 23.0 mph N/A   Overcast
6:15 PM 45.1 °F 37.9 °F 34.2 °F 65% 30.05 in 10.0 mi West 17.3 mph 24.2 mph N/A   Overcast
6:35 PM 45.0 °F 38.9 °F 34.2 °F 66% 30.06 in 10.0 mi WNW 12.7 mph 18.4 mph N/A   Overcast
6:55 PM 44.1 °F 37.4 °F 33.1 °F 65% 30.08 in 10.0 mi WNW 13.8 mph 20.7 mph N/A   Mostly Cloudy
7:15 PM 43.7 °F 38.6 °F 32.9 °F 66% 30.08 in 10.0 mi WNW 9.2 mph - N/A   Mostly Cloudy
7:35 PM 42.6 °F 39.0 °F 32.5 °F 68% 30.08 in 10.0 mi WNW 5.8 mph - N/A   Scattered Clouds
7:55 PM 41.5 °F 38.6 °F 32.2 °F 69% 30.09 in 10.0 mi WNW 4.6 mph - N/A   Clear
8:15 PM 39.7 °F 35.6 °F 32.0 °F 74% 30.09 in 10.0 mi NW 5.8 mph - N/A   Clear
8:35 PM 39.2 °F 35.9 °F 32.0 °F 75% 30.10 in 10.0 mi NW 4.6 mph - N/A   Clear
8:55 PM 39.6 °F 36.3 °F 32.0 °F 74% 30.11 in 10.0 mi WNW 4.6 mph - N/A   Clear
9:15 PM 37.8 °F - 31.6 °F 79% 30.11 in 10.0 mi Calm Calm - N/A   Clear
9:35 PM 36.7 °F - 31.8 °F 83% 30.12 in 10.0 mi Calm Calm - N/A   Clear
9:55 PM 36.5 °F - 32.0 °F 84% 30.13 in 10.0 mi Calm Calm - N/A   Clear
10:15 PM 35.6 °F - 31.6 °F 85% 30.13 in 10.0 mi Calm Calm - N/A   Clear
10:35 PM 35.8 °F - 32.0 °F 86% 30.14 in 10.0 mi Calm Calm - N/A   Clear
10:55 PM 34.9 °F - 31.8 °F 89% 30.14 in 7.0 mi Calm Calm - N/A   Clear
11:15 PM 34.5 °F - 31.6 °F 89% 30.15 in 10.0 mi Calm Calm - N/A   Clear
11:35 PM 34.0 °F - 31.3 °F 90% 30.15 in 7.0 mi Calm Calm - N/A   Clear
11:55 PM 33.1 °F - 30.9 °F 92% 30.15 in 7.0 mi Calm Calm - N/A   Clear